DELTA 1 DEB, 21319

Orbit data source: Space-Track

DELTA 1 DEB, 21319 is space debris in SSO originally from a launch on Thu, 12 Jun 1975 UTC launched from the Air Force Western Test Range (AFWTR). Debris objects in space refer to the collection of defunct objects orbiting the Earth. Examples of debris include non-operational satellites, rocket bodies, and fragments generated from explosions, collisions, or faulty payload assembly.

Loading next visibility...
Identifier
21319, 1975-052AM
Orbit
SSO
Country
Flag of USUS
Related business
Manufacturer
Unknown
Mission
Spacecraft
Bus & Motor
Unknown
Mass
Unknown
Launch date (UTC)
1975-06-12 (50 years ago)
Launch vehicle
Unknown
Launch site
Air Force Western Test Range (AFWTR)
Object type
Payload
Rocket body
Debris
Shape & HBR
Unknown
Radar Cross Section
Small (<0.1 m²)

Expand to show TLE details & history
Last TLE update: 12 hours ago

TLE from 12 hours ago
0 DELTA 1 DEB
1 21319U 75052AM  25259.06884278  .00000114  00000-0  39790-3 0  9998
2 21319  99.6428  90.7302 0236151 111.6790  11.8297 13.06751605634409
Epoch: 2025-09-16T01:39Z
TLE epoch observation values (Epoch: 2025-09-16T01:39:08.016Z)
Latitude
54.83965°
Longitude
-95.4332°
Altitude
1,068.877 km
Speed
7.407 km/s
True Right ascension
18h 58m 27s
True Declination
54° 41' 04"
Sunlit
Object was in daylight at epoch
Visualization orbit readout
Latitude
Unknown
Longitude
Unknown
Altitude
Unknown
Speed
Unknown
Apparent Right ascension
Unknown
Apparent Declination
Unknown
Sunlit
N/A
Visualization observer readout
Local Sidereal Time
06:35:37
Azimuth
Unknown
Elevation
Unknown
Doppler factor
Unknown
Orbital elements
Apogee altitude
1,412.846 km
Perigee altitude
1,053.365 km
Semi-major axis
7,611.242 km
Eccentricity
0.02362
Inclination
99.6428°
RAAN
90.7302°
Arg. of periapsis
111.679°
True anomaly
12.40093°
Mean anomaly
11.8297°
Eccentric anomaly
12.11364°
Mean motion
3.26859 °/min
Orbital period
110.14 mins
BSTAR
0.0003979
Loading maneuver chart data...
Computing Atmospheric mass density...
Loading historical data...
Loading historical data...
Loading historical data...
Loading historical data...
Loading historical data...
Loading historical data...
Loading historical data...

Documentation

Showing up to 5 results
|